Belleville, IL

11:31 PM CDT on September 20, 2017 (GMT -0500)
Scott Air Force Base-Midamerica

Weather History for KBLV - May, 2013

Change the Weather History Date:

Thursday, May 16, 2013

  Actual Average Record
Temperature  
Mean Temperature 71 °F -  
Max Temperature 80 °F 77 °F 93 °F (2001)
Min Temperature 61 °F 51 °F 37 °F (1997)
Cooling Degree Days 6    
Growing Degree Days 21 (Base 50)    
Moisture  
Dew Point 63 °F    
Average Humidity 86    
Maximum Humidity 100    
Minimum Humidity 47    
Precipitation  
Precipitation 0.54 in - - ()
Sea Level Pressure  
Sea Level Pressure 29.93 in    
Wind  
Wind Speed 5 mph (South)    
Max Wind Speed 20 mph    
Max Gust Speed 26 mph    
Visibility 9 miles    
Events Rain , Thunderstorm    
Averages and records for this station are not official NWS values.
T = Trace of Precipitation, MM = Missing Value Source: NWS Daily Summary

Daily Weather History Graph

Daily Weather History Graph

Search for Another Location

Airport or City:

Trip Planner

Search our weather history database for the weather conditions in past years. The results will help you decide how hot, cold, wet, or windy it might be!

Date:

Astronomy

May. 16, 2013 Rise Set
Actual Time 5:46 AM CDT 8:05 PM CDT
Civil Twilight 5:16 AM CDT 8:35 PM CDT
Nautical Twilight 4:39 AM CDT 9:12 PM CDT
Astronomical Twilight 3:59 AM CDT 9:52 PM CDT
Moon 11:18 AM CDT (5/16) 12:27 AM CDT (5/16)
Length of Visible Light 15h 18m
Length of Day
14h 18m
Waxing Crescent, 36% of the Moon is Illuminated
May 16
Waxing Crescent
May 17
First Quarter
May 24
Full
May 31
Last Quarter
Jun 8
New

Hourly Weather History & Observations

Time (CDT) Temp. Heat Index Dew Point Humidity Pressure Visibility Wind Dir Wind Speed Gust Speed Precip Events Conditions
12:58 AM 71.2 °F - 65.7 °F 82% 29.89 in 10.0 mi WSW 2.3 mph - N/A   Partly Cloudy
1:58 AM 70.3 °F - 65.8 °F 86% 29.87 in 10.0 mi WSW 4.6 mph - N/A   Clear
2:58 AM 68.7 °F - 65.8 °F 90% 29.87 in 10.0 mi SW 4.6 mph - N/A   Clear
3:58 AM 68.2 °F - 66.2 °F 93% 29.89 in 10.0 mi West 2.3 mph - N/A   Mostly Cloudy
4:58 AM 68.2 °F - 66.6 °F 95% 29.89 in 10.0 mi SW 4.6 mph - N/A   Mostly Cloudy
5:58 AM 66.9 °F - 66.2 °F 98% 29.91 in 10.0 mi SSW 4.6 mph - N/A   Scattered Clouds
6:58 AM 68.5 °F - 64.9 °F 88% 29.93 in 10.0 mi Variable 2.3 mph - N/A   Mostly Cloudy
7:58 AM 70.9 °F - 65.1 °F 82% 29.94 in 10.0 mi West 4.6 mph - N/A   Scattered Clouds
8:58 AM 72.0 °F - 66.4 °F 83% 29.95 in 10.0 mi South 8.1 mph - N/A   Overcast
9:45 AM 68.0 °F - 60.8 °F 78% 29.97 in 9.0 mi South 19.6 mph 26.5 mph N/A Rain Heavy Rain
9:55 AM 62.6 °F - 62.6 °F 100% 29.97 in 1.5 mi SSW 3.5 mph - N/A Rain Heavy Rain
9:58 AM 63.3 °F - 61.9 °F 95% 29.97 in 1.2 mi WSW 2.3 mph - 0.32 in Rain Heavy Rain
10:08 AM 62.6 °F - 62.6 °F 100% 29.97 in 2.0 mi Calm Calm - N/A Rain Light Rain
10:13 AM 62.6 °F - 62.6 °F 100% 29.96 in 3.0 mi East 3.5 mph - N/A Rain Light Rain
10:14 AM 62.6 °F - 62.6 °F 100% 29.96 in 3.0 mi East 4.6 mph - N/A Rain , Thunderstorm Light Thunderstorms and Rain
10:29 AM 62.6 °F - 62.6 °F 100% 29.96 in 9.0 mi ENE 4.6 mph - N/A Rain , Thunderstorm Light Rain
10:58 AM 63.3 °F - 63.1 °F 99% 29.98 in 8.0 mi SE 5.8 mph - 0.10 in Rain Light Rain
11:58 AM 64.9 °F - 64.9 °F 100% 29.96 in 10.0 mi East 5.8 mph - 0.12 in Rain Light Rain
12:11 PM 66.2 °F - 66.2 °F 100% 29.95 in 10.0 mi SE 5.8 mph - N/A   Mostly Cloudy
12:58 PM 70.2 °F - 68.2 °F 93% 29.94 in 10.0 mi South 6.9 mph - 0.00 in   Overcast
1:58 PM 75.4 °F - 68.9 °F 80% 29.92 in 10.0 mi South 9.2 mph - N/A   Mostly Cloudy
2:58 PM 78.6 °F - 66.9 °F 67% 29.90 in 10.0 mi SSE 10.4 mph - N/A   Scattered Clouds
3:58 PM 80.2 °F 80.7 °F 58.3 °F 47% 29.90 in 10.0 mi South 15.0 mph - N/A   Partly Cloudy
4:58 PM 77.5 °F - 57.6 °F 50% 29.90 in 10.0 mi SSW 10.4 mph 21.9 mph N/A   Scattered Clouds
5:58 PM 75.9 °F - 58.1 °F 54% 29.90 in 10.0 mi SSW 13.8 mph - N/A   Clear
6:58 PM 72.5 °F - 60.8 °F 67% 29.91 in 10.0 mi South 8.1 mph - N/A   Mostly Cloudy
7:58 PM 69.8 °F - 60.3 °F 72% 29.91 in 10.0 mi South 4.6 mph - N/A   Overcast
8:58 PM 67.5 °F - 60.1 °F 77% 29.91 in 10.0 mi Calm Calm - N/A   Clear
9:58 PM 65.1 °F - 60.6 °F 85% 29.93 in 10.0 mi Calm Calm - N/A   Clear
10:58 PM 62.6 °F - 62.1 °F 98% 29.94 in 10.0 mi Calm Calm - N/A   Clear
11:58 PM 61.9 °F - 61.9 °F 100% 29.95 in 10.0 mi Calm Calm - N/A   Scattered Clouds